CZ-6A DEB, 60656

Orbit data source: Space-Track

CZ-6A DEB, 60656 is space debris in LEO originally from a launch on Tue, 06 Aug 2024 UTC launched from the Taiyaun Space Center, China (TSC). Debris objects in space refer to the collection of defunct objects orbiting the Earth. Examples of debris include non-operational satellites, rocket bodies, and fragments generated from explosions, collisions, or faulty payload assembly.

Loading next visibility...
Identifier
60656, 2024-140BH
Orbit
LEO
Country
Flag of CNCN / PRC
Related business
Manufacturer
SAST
Mission
Spacecraft
Bus & Motor
Unknown
Mass
Unknown
Launch date (UTC)
2024-08-06 (1 year ago)
Launch vehicle
Unknown
Launch site
Taiyaun Space Center, China (TSC)
Object type
Payload
Rocket body
Debris
Shape & HBR
Unknown shape, 0.2 m
Radar Cross Section
Small (<0.1 m²)

Expand to show TLE details & history
Last TLE update: 10 hours ago

TLE from 10 hours ago
0 CZ-6A DEB
1 60656U 24140BH  25352.84542732  .00020881  00000-0  14210-2 0  9995
2 60656  89.1562 299.2427 0142674 107.9747 253.7097 14.98182205 72530
Epoch: 2025-12-18T20:17Z
TLE epoch observation values (Epoch: 2025-12-18T20:17:24.920Z)
Latitude
-0.00003°
Longitude
-92.80622°
Altitude
604.799 km
Speed
7.541 km/s
True Right ascension
19h 56m 58s
True Declination
0° 00' 00"
Sunlit
Object was in daylight at epoch
Visualization orbit readout
Latitude
Unknown
Longitude
Unknown
Altitude
Unknown
Speed
Unknown
Apparent Right ascension
Unknown
Apparent Declination
Unknown
Sunlit
N/A
Visualization observer readout
Local Sidereal Time
05:01:36
Azimuth
Unknown
Elevation
Unknown
Doppler factor
Unknown
Orbital elements
Apogee altitude
668.474 km
Perigee altitude
470.229 km
Semi-major axis
6,947.488 km
Eccentricity
0.01427
Inclination
89.1562°
RAAN
299.2427°
Arg. of periapsis
107.9747°
True anomaly
252.14842°
Mean anomaly
253.7097°
Eccentric anomaly
252.92826°
Mean motion
3.74802 °/min
Orbital period
96.05 mins
BSTAR
0.001421
Loading maneuver chart data...
Computing Atmospheric mass density...

Documentation

Showing up to 5 results
|